Location: ??????????
(48.5701°N, 37.7703°E)
Time: 19:35:38
(UTC+00:00)

Cosmos 921 Rocket - Pass Details

Date: 14 July 2020
Orbit: 572 x 631 km, 75.8° (Epoch: 11 August)

Event Time Altitude Azimuth Distance (km) Brightness Sun altitude
Rises 00:29:25 0° 332° (NNW) 2,900 6.8 -9.7°
Reaches altitude 10° 00:31:50 10° 324° (NW) 1,980 5.8 -9.5°
Maximum altitude 00:35:50 35° 259° (W) 992 3.7 -9.0°
Drops below altitude 10° 00:39:44 10° 194° (SSW) 1,931 5.1 -8.6°
Enters shadow 00:40:28 - 190° (S) 2,201 5.4 -8.5°
